Key West, FL

5:29 PM EDT on July 25, 2017 (GMT -0400)
Key West International

Weather History for KEYW - June, 2012

Change the Weather History Date:

Monday, June 25, 2012

  Actual Average Record
Temperature  
Mean Temperature 82 °F 84 °F  
Max Temperature 83 °F 88 °F 93 °F (1952)
Min Temperature 80 °F 79 °F 69 °F (1951)
Degree Days  
Heating Degree Days 0 0  
Month to date heating degree days 0 0  
Since 1 June heating degree days 0 0  
Since 1 July heating degree days 28 73  
Cooling Degree Days 17 19  
Month to date cooling degree days 422 455  
Year to date cooling degree days 2112 1885  
Since 1 June cooling degree days 422 455  
Growing Degree Days 30 (Base 50)    
Moisture  
Dew Point 75 °F    
Average Humidity 80    
Maximum Humidity 85    
Minimum Humidity 74    
Precipitation  
Precipitation 0.00 in 0.14 in 5.14 in (1992)
Month to date precipitation 7.88 3.43  
Year to date precipitation 24.98 14.06  
Snow  
Snow 0.00 in - - ()
Month to date snowfall 0.0  
Since 1 June snowfall 0.0  
Since 1 July snowfall 0.0  
Snow Depth 0.00 in    
Sea Level Pressure  
Sea Level Pressure 29.83 in    
Wind  
Wind Speed 19 mph (SSW)    
Max Wind Speed 28 mph    
Max Gust Speed 36 mph    
Visibility 10 miles    
Events      
T = Trace of Precipitation, MM = Missing Value Source: NWS Daily Summary

Daily Weather History Graph

Daily Weather History Graph

Search for Another Location

Airport or City:

Trip Planner

Search our weather history database for the weather conditions in past years. The results will help you decide how hot, cold, wet, or windy it might be!

Date:

Astronomy

Jun. 25, 2012 Rise Set
Actual Time 6:40 AM EDT 8:19 PM EDT
Civil Twilight 6:14 AM EDT 8:45 PM EDT
Nautical Twilight 5:43 AM EDT 9:15 PM EDT
Astronomical Twilight 5:11 AM EDT 9:48 PM EDT
Moon 12:09 PM EDT No Moon Set
Length of Visible Light 14h 30m
Length of Day
13h 39m
Waxing Crescent, 34% of the Moon is Illuminated
Jun 25
Waxing Crescent
Jun 26
First Quarter
Jul 3
Full
Jul 10
Last Quarter
Jul 19
New

Hourly Weather History & Observations

Time (EDT) Temp. Heat Index Dew Point Humidity Pressure Visibility Wind Dir Wind Speed Gust Speed Precip Events Conditions
12:53 AM 81.0 °F 86.7 °F 75.0 °F 82% 29.87 in 10.0 mi South 18.4 mph 29.9 mph N/A   Partly Cloudy
1:53 AM 81.0 °F 86.7 °F 75.0 °F 82% 29.86 in 10.0 mi SSW 17.3 mph 29.9 mph N/A   Clear
2:53 AM 80.1 °F 84.2 °F 73.0 °F 79% 29.83 in 10.0 mi SSW 21.9 mph - N/A   Clear
3:53 AM 81.0 °F 86.7 °F 75.0 °F 82% 29.82 in 10.0 mi South 19.6 mph 26.5 mph N/A   Clear
4:53 AM 81.0 °F 86.7 °F 75.0 °F 82% 29.83 in 10.0 mi South 23.0 mph 28.8 mph N/A   Partly Cloudy
5:53 AM 81.0 °F 86.7 °F 75.0 °F 82% 29.83 in 10.0 mi South 17.3 mph 28.8 mph N/A   Mostly Cloudy
6:53 AM 81.0 °F 86.7 °F 75.0 °F 82% 29.84 in 10.0 mi South 20.7 mph 29.9 mph N/A   Scattered Clouds
7:30 AM 80.6 °F 85.4 °F 73.4 °F 79% 29.87 in 10.0 mi South 23.0 mph 33.4 mph N/A   Mostly Cloudy
7:37 AM 80.6 °F 85.4 °F 73.4 °F 79% 29.87 in 10.0 mi South 18.4 mph 33.4 mph N/A   Mostly Cloudy
7:53 AM 81.0 °F 86.7 °F 75.0 °F 82% 29.87 in 10.0 mi South 18.4 mph 29.9 mph N/A   Mostly Cloudy
8:53 AM 81.0 °F 86.7 °F 75.0 °F 82% 29.86 in 10.0 mi South 20.7 mph 31.1 mph N/A   Partly Cloudy
9:53 AM 82.0 °F 88.6 °F 75.0 °F 79% 29.86 in 10.0 mi South 21.9 mph 31.1 mph N/A   Scattered Clouds
10:53 AM 82.0 °F 87.9 °F 73.9 °F 76% 29.87 in 10.0 mi SSW 20.7 mph 31.1 mph N/A   Clear
11:53 AM 82.9 °F 89.4 °F 73.9 °F 74% 29.87 in 10.0 mi SSW 25.3 mph 32.2 mph N/A   Clear
12:53 PM 82.9 °F 90.2 °F 75.0 °F 77% 29.86 in 10.0 mi SSW 20.7 mph 27.6 mph N/A   Clear
1:53 PM 82.9 °F 90.8 °F 75.9 °F 79% 29.84 in 10.0 mi SSW 17.3 mph 24.2 mph N/A   Clear
2:53 PM 82.9 °F 90.2 °F 75.0 °F 77% 29.82 in 10.0 mi SSW 18.4 mph 25.3 mph N/A   Clear
3:53 PM 82.9 °F 90.2 °F 75.0 °F 77% 29.80 in 10.0 mi SSW 16.1 mph - N/A   Clear
4:53 PM 82.9 °F 90.8 °F 75.9 °F 79% 29.80 in 10.0 mi SSW 15.0 mph 21.9 mph N/A   Clear
5:53 PM 82.9 °F 90.8 °F 75.9 °F 79% 29.79 in 10.0 mi South 13.8 mph - N/A   Clear
6:53 PM 82.9 °F 90.8 °F 75.9 °F 79% 29.79 in 10.0 mi South 13.8 mph - N/A   Clear
7:53 PM 82.9 °F 90.2 °F 75.0 °F 77% 29.79 in 10.0 mi SSW 23.0 mph 31.1 mph N/A   Clear
8:53 PM 82.0 °F 87.9 °F 73.9 °F 76% 29.79 in 10.0 mi SSW 23.0 mph 31.1 mph N/A   Clear
9:53 PM 82.4 °F 88.2 °F 73.4 °F 74% 29.79 in 10.0 mi South 19.6 mph 28.8 mph N/A   Clear
10:53 PM 82.0 °F 87.9 °F 73.9 °F 76% 29.80 in 10.0 mi SSW 19.6 mph 26.5 mph N/A   Clear
11:53 PM 82.0 °F 87.9 °F 73.9 °F 76% 29.79 in 10.0 mi SSW 19.6 mph 29.9 mph N/A   Partly Cloudy